[[{"header":{"parameterUnit":"m.s-1","parameterCategory":1,"la1":30.2991,"la2":30.254,"lo1":-89.0895,"lo2":-89.0444,"dy":0.0017,"dx":0.0017,"nx":28,"ny":28,"refTime":"2024-05-24T21:00:00:Z","depth":0,"parameterNumber":2,"parameterNumberName":"U-component_of_WINDS"},"data":[0,0,0,0,0,0,0,0,0,0,0,0,0,0,0,0,0,0,0,0,0,0,0,0,0,0,0,0,0,0,0,0,0,0,0,0,0,0,0,0,0,0,0,0,0,0,0,0,0,0,0,0,0,0,0,0,0,0,1.4633,1.4633,0,1.4615,1.4614,1.4614,1.4576,1.4575,1.4574,1.4574,1.4556,1.4556,1.4556,0,0,0,0,0,0,0,0,0,0,0,0,0,1.4637,1.4637,1.4633,1.4633,1.4633,1.4615,1.4614,1.4614,1.4576,1.4575,1.4574,1.4573,1.4555,1.4556,1.4556,0,0,0,0,0,0,0,0,0,0,0,0,0,1.4628,1.4637,1.4633,1.4612,1.461,1.4615,1.4614,1.4614,1.4576,1.4575,1.4574,1.4573,1.4555,1.4556,1.4556,1.4581,0,0,1.4557,1.4557,0,0,0,0,0,0,0,0,1.4629,1.4628,1.4615,1.4613,1.4611,1.4596,1.4609,1.4603,1.4577,1.4589,1.4574,1.4572,1.457,1.4569,1.4568,1.458,1.4579,1.4557,1.4557,1.4557,1.4558,0,0,0,0,0,0,0,1.4629,1.4629,1.4626,1.4615,1.4612,1.4603,1.4601,1.4607,1.4586,1.4588,1.4585,1.4583,1.4569,1.4568,1.4567,1.4579,1.4557,1.4557,1.4558,1.4558,1.4609,1.461,0,0,0,0,0,0,1.4633,1.463,1.4627,1.4625,1.4617,1.4604,1.4601,1.4602,1.4586,1.4582,1.4584,1.4582,1.4568,1.4567,1.4567,1.4593,1.4557,1.4558,1.4558,1.4608,1.4609,1.461,0,0,0,0,0,0,1.4633,1.4633,1.4627,1.4627,1.4625,1.4605,1.4607,1.4602,1.4602,1.4583,1.4579,1.4587,1.4567,1.4566,1.4577,1.4592,1.4558,1.4558,1.4606,1.4608,1.461,1.4648,0,0,0,0,0,0,1.4634,1.4634,1.4643,1.4627,1.4625,1.4638,1.4608,1.4603,1.4602,1.4598,1.4585,1.4582,1.4566,1.4577,1.4578,1.4592,1.4558,1.4605,1.4607,1.4609,1.4645,1.465,1.4655,0,0,0,0,0,1.4634,1.4655,1.4643,1.4643,1.4637,1.4639,1.4638,1.4619,1.4604,1.4612,1.4601,1.4582,1.4591,1.4578,1.4579,1.4594,1.4604,1.4606,1.4609,1.4643,1.4649,1.4655,0,0,0,0,0,0,1.4673,1.4652,1.464,1.4656,1.465,1.4633,1.4643,1.4627,1.4625,1.4622,1.4599,1.4596,1.461,1.4603,1.459,1.4616,1.4594,1.4597,1.462,1.4626,1.4631,1.4632,1.4559,0,0,0,0,0,1.4684,1.4688,1.4669,1.4686,1.4683,1.4664,1.4664,1.465,1.4643,1.464,1.4629,1.4622,1.4623,1.4625,1.4625,1.4644,1.464,1.4655,1.466,1.4664,1.4666,1.4675,1.468,1.4619,1.4619,1.4619,0,0,1.4706,1.4695,1.4699,1.4693,1.4686,1.469,1.4662,1.4668,1.467,1.4641,1.465,1.4642,1.4633,1.4648,1.4654,1.4643,1.4682,1.4667,1.4671,1.4671,1.4678,1.4684,1.4689,1.462,1.462,1.462,0,0,1.4747,1.474,1.4752,1.4746,1.4736,1.4723,1.4726,1.4711,1.4704,1.4713,1.469,1.4693,1.4696,1.469,1.4688,1.4726,1.4709,1.4727,1.4754,1.4762,1.4767,1.4771,1.4783,1.4788,1.473,1.473,1.473,0,1.4776,1.4781,1.476,1.4767,1.4765,1.4738,1.475,1.4745,1.4735,1.4734,1.4722,1.4724,1.4716,1.4728,1.4738,1.4737,1.4739,1.4728,1.4768,1.4772,1.4775,1.4787,1.4792,1.4732,1.4732,1.4732,1.4732,0,1.4816,1.482,1.483,1.4821,1.482,1.483,1.481,1.4812,1.4798,1.4787,1.4795,1.4785,1.4782,1.4784,1.4771,1.4795,1.4787,1.4772,1.4749,1.4784,1.4794,1.4798,1.4735,1.4734,1.4734,1.4733,0,0,1.4881,1.486,1.4864,1.4859,1.4846,1.4848,1.4856,1.4852,1.4854,1.4848,1.4854,1.4856,1.4841,1.4838,1.4824,1.4832,1.4861,1.4815,1.4814,1.4823,1.4885,1.4896,1.4901,1.485,1.4851,1.4852,1.4885,0,1.4918,1.493,1.4911,1.4927,1.493,1.4904,1.4911,1.4903,1.4893,1.4893,1.4882,1.4883,1.4864,1.4862,1.4869,1.4856,1.4873,1.4854,1.4854,1.4855,1.4856,1.4907,1.4918,1.495,1.4889,1.489,1.489,0,1.4963,1.4959,1.4975,1.4959,1.496,1.4966,1.4961,1.4962,1.4953,1.4944,1.4941,1.4924,1.493,1.4909,1.4917,1.4905,1.4904,1.4898,1.4899,1.4897,1.4874,1.4905,1.496,1.4965,1.4897,1.4896,1.4896,0,1.5007,1.5006,1.5015,1.5011,1.4994,1.4999,1.4992,1.4981,1.498,1.4976,1.4974,1.4971,1.4969,1.4967,1.4949,1.4936,1.4959,1.4937,1.4951,1.4952,1.4956,1.4956,1.5011,1.4959,1.4959,1.4958,1.4958,0,1.505,1.506,1.5034,1.5039,1.505,1.5029,1.504,1.503,1.5021,1.5024,1.5002,1.5006,1.4983,1.4984,1.497,1.4978,1.4978,1.4971,1.4967,1.4972,1.4973,1.497,1.4967,1.496,1.4959,1.4959,1.4959,0,1.51,1.5083,1.5091,1.5074,1.5069,1.5078,1.5063,1.5067,1.5055,1.5059,1.5058,1.504,1.5039,1.5022,1.5018,1.5009,1.5022,1.5015,1.5025,1.5022,1.5037,1.5035,1.5091,1.5096,1.5042,1.5043,1.5043,0,1.5128,1.5135,1.5118,1.5118,1.5112,1.5113,1.5111,1.509,1.5089,1.5079,1.5084,1.5082,1.5079,1.5079,1.5065,1.5062,1.5054,1.5074,1.5053,1.5058,1.5052,1.5051,1.5051,1.5077,1.5078,1.5079,1.5079,0,1.5178,1.5169,1.5167,1.5162,1.516,1.5155,1.5149,1.515,1.5128,1.5128,1.5127,1.5124,1.512,1.5118,1.5112,1.5105,1.5088,1.5086,1.5089,1.5093,1.5098,1.5094,1.5035,1.5084,1.5084,1.5084,1.5083,1.5083,1.5216,1.5221,1.5209,1.5208,1.5201,1.5195,1.5198,1.5186,1.5184,1.5179,1.5167,1.5167,1.5158,1.5148,1.5142,1.5142,1.5132,1.5137,1.5138,1.5139,1.5141,1.5099,1.5141,1.5141,1.5141,1.5141,1.5141,0,1.5264,1.5255,1.5254,1.5245,1.5244,1.5228,1.522,1.522,1.522,1.5212,1.521,1.5208,1.5206,1.5191,1.5187,1.519,1.5182,1.5189,1.5188,1.5187,1.5151,1.5148,1.5196,1.5196,1.5196,1.5196,1.5196,1.5196,1.5288,1.5294,1.5284,1.5287,1.5278,1.5278,1.5274,1.5269,1.5262,1.5261,1.5259,1.5249,1.5239,1.5233,1.523,1.5226,1.5225,1.5235,1.5228,1.5195,1.5189,1.5184,1.5181,1.5235,1.5235,1.5263,1.5264,1.5264]},{"header":{"parameterUnit":"m.s-1","parameterCategory":1,"la1":30.2991,"la2":30.254,"lo1":-89.0895,"lo2":-89.0444,"dy":0.0017,"dx":0.0017,"nx":28,"ny":28,"refTime":"2024-05-24T21:00:00:Z","depth":0,"parameterNumber":3,"parameterNumberName":"V-component_of_WINDS"},"data":[0,0,0,0,0,0,0,0,0,0,0,0,0,0,0,0,0,0,0,0,0,0,0,0,0,0,0,0,0,0,0,0,0,0,0,0,0,0,0,0,0,0,0,0,0,0,0,0,0,0,0,0,0,0,0,0,0,0,4.8373,4.8374,0,4.8395,4.8395,4.8395,4.8314,4.8312,4.831,4.8307,4.8326,4.8328,4.8331,0,0,0,0,0,0,0,0,0,0,0,0,0,4.8259,4.8261,4.8373,4.8374,4.8374,4.8395,4.8395,4.8395,4.8315,4.8312,4.8309,4.8306,4.8325,4.8328,4.8331,0,0,0,0,0,0,0,0,0,0,0,0,0,4.8297,4.8262,4.8373,4.8336,4.8333,4.8395,4.8395,4.8395,4.8316,4.8312,4.8308,4.8305,4.8324,4.8328,4.8332,4.8428,0,0,4.8344,4.8346,0,0,0,0,0,0,0,0,4.8295,4.8301,4.8342,4.8339,4.8336,4.8348,4.8361,4.8406,4.8316,4.8322,4.8307,4.8303,4.8336,4.8339,4.835,4.8429,4.843,4.8345,4.8347,4.8349,4.835,0,0,0,0,0,0,0,4.8293,4.83,4.8382,4.8342,4.8339,4.8317,4.8319,4.8369,4.8349,4.8321,4.8316,4.8319,4.8334,4.8347,4.835,4.843,4.8344,4.8348,4.8351,4.8352,4.8588,4.8591,0,0,0,0,0,0,4.8295,4.8298,4.8381,4.8382,4.8306,4.8322,4.8324,4.8348,4.8348,4.8345,4.8322,4.8316,4.8342,4.8346,4.8351,4.8463,4.8349,4.8353,4.8355,4.8584,4.8589,4.8593,0,0,0,0,0,0,4.8293,4.8304,4.838,4.8339,4.8347,4.8328,4.8356,4.835,4.8363,4.8349,4.8344,4.834,4.8339,4.8345,4.841,4.8462,4.8354,4.8358,4.8579,4.8585,4.8591,4.8689,0,0,0,0,0,0,4.829,4.8303,4.8341,4.834,4.835,4.844,4.8359,4.8353,4.8371,4.8362,4.8364,4.8361,4.8337,4.8404,4.8414,4.8466,4.8361,4.8575,4.8582,4.8589,4.8681,4.8697,4.8711,0,0,0,0,0,4.8286,4.8367,4.8343,4.8354,4.8396,4.8444,4.8449,4.842,4.8376,4.8412,4.8403,4.8361,4.8455,4.8411,4.8421,4.8476,4.8571,4.858,4.8588,4.8674,4.8694,4.8711,0,0,0,0,0,0,4.8373,4.8366,4.834,4.8423,4.8435,4.843,4.8475,4.8442,4.8466,4.8456,4.8419,4.842,4.8491,4.849,4.8441,4.8569,4.8505,4.8516,4.8567,4.8586,4.8601,4.8599,4.8365,0,0,0,0,0,4.8402,4.8443,4.8434,4.8508,4.8515,4.8495,4.8514,4.8491,4.8501,4.8505,4.85,4.8511,4.8542,4.8564,4.8592,4.868,4.8679,4.8723,4.8738,4.875,4.876,4.8805,4.8824,4.8621,4.8621,4.8621,0,0,4.8462,4.8464,4.8491,4.8525,4.8532,4.8573,4.8499,4.8546,4.8575,4.8512,4.8573,4.857,4.8578,4.8655,4.8688,4.8656,4.8816,4.8761,4.8772,4.8774,4.8816,4.8836,4.8853,4.8627,4.8626,4.8625,0,0,4.8592,4.8598,4.866,4.8668,4.8679,4.8664,4.8679,4.868,4.8675,4.8736,4.8689,4.8723,4.8779,4.8787,4.8798,4.8931,4.8892,4.8941,4.902,4.9065,4.9081,4.9095,4.9141,4.9158,4.8951,4.8951,4.8951,0,4.8665,4.8727,4.8696,4.8746,4.8762,4.8707,4.8768,4.8777,4.8796,4.8808,4.8772,4.884,4.8842,4.8919,4.8952,4.8963,4.8978,4.894,4.9081,4.9095,4.9108,4.9151,4.9169,4.8957,4.8956,4.8955,4.8955,0,4.8815,4.8858,4.8907,4.8928,4.8949,4.9004,4.898,4.9005,4.898,4.8969,4.9031,4.9032,4.9059,4.9076,4.9051,4.9149,4.9129,4.9088,4.9023,4.9133,4.9174,4.919,4.8965,4.8963,4.8961,4.896,0,0,4.9001,4.9004,4.9022,4.903,4.9038,4.907,4.9122,4.915,4.9171,4.9186,4.9228,4.9276,4.9238,4.9251,4.9227,4.9267,4.937,4.922,4.922,4.9248,4.9477,4.9508,4.9528,4.9345,4.9348,4.9351,4.9476,0,4.9128,4.9219,4.9192,4.9282,4.9321,4.9269,4.9314,4.9323,4.9314,4.9345,4.9334,4.9369,4.9316,4.9324,4.936,4.935,4.9416,4.9341,4.9383,4.9385,4.9382,4.9549,4.9581,4.9699,4.9492,4.9494,4.9496,0,4.9288,4.931,4.9405,4.9405,4.9421,4.9462,4.9485,4.9515,4.9523,4.9514,4.9528,4.9496,4.9546,4.9482,4.9549,4.9499,4.9514,4.9512,4.9516,4.9518,4.9447,4.9555,4.9736,4.9754,4.9521,4.9519,4.9517,0,4.9413,4.9466,4.9529,4.9538,4.9541,4.9571,4.9573,4.9578,4.9596,4.9615,4.9626,4.9651,4.9664,4.9684,4.9658,4.9614,4.9729,4.9663,4.9722,4.9723,4.9748,4.9747,4.9934,4.976,4.9759,4.9759,4.9759,0,4.9557,4.9617,4.9585,4.9624,4.9689,4.9657,4.9722,4.9718,4.9723,4.9759,4.9715,4.975,4.9715,4.9746,4.9726,4.9785,4.9791,4.9784,4.9778,4.9788,4.9789,4.9797,4.9788,4.9764,4.9763,4.9762,4.9761,0,4.9707,4.9689,4.9754,4.9751,4.9752,4.98,4.9796,4.9831,4.9819,4.9865,4.9874,4.9855,4.9889,4.9866,4.99,4.9887,4.9963,4.9946,4.9961,4.9956,5.0016,5.001,5.0214,5.0239,5.005,5.0052,5.0053,0,4.98,4.9845,4.9847,4.9869,4.9874,4.9909,4.9927,4.9897,4.9918,4.9931,4.9964,4.9995,5.0018,5.0075,5.0063,5.0089,5.0071,5.0141,5.0075,5.0083,5.0071,5.0069,5.0073,5.0154,5.0156,5.0158,5.016,0,4.9967,4.9955,4.9984,5.001,5.0033,5.0052,5.0066,5.0086,5.0056,5.0081,5.0116,5.0134,5.0169,5.02,5.0221,5.0221,5.0186,5.0181,5.0196,5.0206,5.0212,5.0209,4.9997,5.0176,5.0174,5.0173,5.0172,5.0172,5.0091,5.0128,5.0135,5.0168,5.0176,5.0191,5.0223,5.0216,5.0245,5.0271,5.0252,5.0293,5.0299,5.0324,5.0329,5.036,5.0332,5.0353,5.0358,5.0364,5.0372,5.0208,5.0364,5.0363,5.0363,5.0363,5.0362,0,5.0254,5.0256,5.0287,5.0309,5.0335,5.03,5.0314,5.0338,5.0375,5.0385,5.0408,5.0448,5.0477,5.0468,5.0494,5.0521,5.0505,5.0529,5.0526,5.0527,5.0397,5.0381,5.0541,5.0541,5.0541,5.0541,5.0541,5.0541,5.0342,5.0403,5.0392,5.0456,5.0457,5.0498,5.0509,5.0522,5.0529,5.0576,5.0601,5.0595,5.0596,5.0622,5.0647,5.0643,5.0655,5.0684,5.0675,5.0553,5.0536,5.0519,5.0504,5.0687,5.0687,5.0802,5.0803,5.0804]}]]